Flag for Denmark Weather past 2 weeks in Horsens, Denmark

Now
52 °F

Sunny.


Feels Like: 47 °F
Forecast: 41 / 64 °F
Wind: 16 mph from Northwest

Location: Billund Lufthavn

Current Time: Apr 21, 2015 at 11:08:43 AM

Latest Report: Apr 21, 2015 at 10:20 AM


Visibility: 10 mi

Pressure: 30.33 "Hg

Humidity: 67%

Dew point: 41 °F

Location of HorsensLocation

Historic Weather in Horsens — Graph

°F

Horsens temperature yesterday

Maximum temperature yesterday: 68 °F (at 2:50 PM)
Minimum temperature yesterday: 36 °F (at 5:50 AM)
Average temperature yesterday: 53 °F

Past Weeks' High & Low Weather Summary

 TemperatureHumidityPressure
High68 °F (Apr 11, 1:20 PM)100% (Apr 7, 1:50 AM)30.51 "Hg (Apr 7, 1:50 AM)
Low30 °F (Apr 18, 4:50 AM)23% (Apr 20, 4:50 PM)29.74 "Hg (Apr 15, 2:20 PM)
Average46 °F74%30.18 "Hg
* Reported Apr 6 9:20 AM — Apr 21 9:50 AM, Horsens, Weather by CustomWeather, © 2015

Note: Actual official high and low records may vary slightly from our data, if they occured in-between our weather recording intervals... More about our weather records

Advertising

Horsens weather history for previous 24 hours

 ConditionsComfort  
Time TempWeatherWind HumidityBarometerVisibility
9:50 AM
Tue, Apr 21
50 °FSunny.15 mph67%30.33 "Hg10 mi
9:20 AM48 °FSunny.14 mph76%30.33 "Hg10 mi
8:50 AM46 °FSunny.12 mph76%30.33 "Hg10 mi
8:20 AM45 °FSunny.13 mph81%30.33 "Hg10 mi
7:50 AM43 °FPassing clouds.10 mph87%30.33 "HgN/A
7:20 AM43 °FSunny.13 mph87%30.33 "Hg10 mi
6:50 AM41 °FQuite cool.12 mph93%30.33 "HgN/A
6:20 AM41 °FQuite cool.9 mph87%30.33 "HgN/A
5:20 AM39 °FChilly.10 mph87%30.33 "HgN/A
4:50 AM41 °FQuite cool.8 mph81%30.33 "HgN/A
4:20 AM41 °FQuite cool.7 mph81%30.33 "HgN/A
3:50 AM41 °FQuite cool.8 mph81%30.33 "HgN/A
3:20 AM41 °FQuite cool.10 mph81%30.33 "HgN/A
2:50 AM41 °FQuite cool.9 mph81%30.33 "HgN/A
2:20 AM41 °FQuite cool.6 mph81%30.36 "HgN/A
1:50 AM41 °FQuite cool.6 mph70%30.36 "HgN/A
1:20 AM43 °FQuite cool.6 mph66%30.36 "HgN/A
12:50 AM43 °FQuite cool.7 mph61%30.36 "HgN/A
12:20 AM45 °FQuite cool.7 mph57%30.36 "HgN/A
11:50 PM
Mon, Apr 20
46 °FCool.7 mph53%30.36 "HgN/A
11:20 PM48 °FCool.5 mph46%30.36 "HgN/A
10:50 PM50 °FCool.7 mph47%30.36 "HgN/A
10:20 PM52 °FCool.7 mph44%30.36 "HgN/A
9:50 PM52 °FCool.7 mph47%30.39 "HgN/A
9:20 PM54 °FCool.8 mph44%30.36 "HgN/A
8:50 PM55 °FRefreshingly cool.9 mph47%30.36 "HgN/A
8:20 PM59 °FSunny.8 mph42%30.36 "Hg10 mi
7:50 PM63 °FSunny.10 mph34%30.36 "Hg10 mi
7:20 PM63 °FSunny.9 mph34%30.36 "Hg10 mi
6:50 PM66 °FSunny.9 mph32%30.36 "Hg10 mi
6:20 PM68 °FSunny.8 mph24%30.36 "Hg10 mi
5:50 PM68 °FPassing clouds.8 mph26%30.36 "HgN/A
5:20 PM68 °FPassing clouds.8 mph24%30.36 "HgN/A
4:50 PM68 °FPassing clouds.9 mph23%30.36 "HgN/A
4:20 PM68 °FPassing clouds.9 mph24%30.36 "HgN/A
3:50 PM68 °FPassing clouds.9 mph24%30.36 "HgN/A
3:20 PM68 °FPassing clouds.8 mph26%30.36 "HgN/A
2:50 PM68 °FPassing clouds.8 mph26%30.36 "HgN/A
2:20 PM66 °FPassing clouds.7 mph24%30.36 "HgN/A
1:50 PM64 °FPassing clouds.7 mph28%30.39 "HgN/A
1:20 PM64 °FPassing clouds.9 mph30%30.39 "HgN/A
12:50 PM64 °FPassing clouds.6 mph32%30.39 "HgN/A
12:20 PM61 °FPassing clouds.7 mph34%30.39 "HgN/A
11:50 AM61 °FPassing clouds.6 mph34%30.36 "HgN/A
11:20 AM61 °FPassing clouds.8 mph34%30.39 "HgN/A
Weather by CustomWeather, © 2015

See weather overviewHow to use our weather pages